Zurück zum Katalog

DELTA 2 R/B

AktivHEO
NORAD 40060·ROCKET BODY·🇺🇸 United States

Gestartet Jul 2, 2014 von Vandenberg Space Force Base

Loading…

Nächste Überflüge (nächste 24 Stunden)

TLE

AktuellSource: Space-Track

Epoche: Sep 11, 2026, 12:20 UTC

1 40060U 14035B   26254.51423239  .00000042  00000-0  00000-0 0  9997
2 40060  98.1864 109.2425 3069267  92.9840 302.0896  6.11246003272176

Verfolge DELTA 2 R/B in Echtzeit mit AllMySat

Download on the App Store